Starlink 30591

operational
NORAD ID: 58088 Int'l Des: 2023-160 Owner: SPXS Country: US Constellation: starlink
LEOCIRCULAR

关于 Starlink 30591

正在加载描述...

实时位置

正在加载3D地球...

即将过境

高度历史

Altitude vs Time

uPlot chart will show altitude changes over time

两行轨道根数

1 58088U 23160P 25261.13821969 -.00000065 00000-0 10247-4 0 9996
2 58088 43.0042 297.6849 0001603 278.6745 81.3916 15.02537795106962
Epoch: Sep 18, 2025 • Age: 8 hours

当前状态

高度 558.2 km
速度 7.58 km/s
星下点 8.76°N, 137.41°E
发射日期 Oct 18, 2023
运行时间 1.9 years
类型 internet

技术详情

分类 Payload
质量 730.00 kg
干质量 700.00 kg
总质量 730.00 kg
长度 0.30 m
直径 4.10 m
跨度 29.00 m
形状 Box + pan
制造商 SPXS
平台类型 Starlink V2M
阶段状态 In Orbit
所有者/国家 SPXS/US

大型星座

Loading constellations...